Location: Ústí nad Labem
(50.6611°N, 14.0531°E)
Time: 02:20:23
(UTC+02:00)

A-11 Canister half - Pass Details

Date: 21 April 2024
Orbit: 1525 x 1683 km, 47.3° (Epoch: 19 May)

Event Time Altitude Azimuth Distance (km) Brightness Sun altitude
Rises 04:12:10 0° 170° (S) 4,839 11.3 -15.0°
Reaches altitude 10° 04:17:57 10° 143° (SE) 3,892 11.1 -14.3°
Maximum altitude 04:21:29 12° 122° (ESE) 3,719 11.2 -13.9°
Drops below altitude 10° 04:25:02 10° 101° (E) 3,929 11.7 -13.4°
Sets 04:30:54 0° 75° (ENE) 4,938 13.0 -12.7°
